TimeEDT,TemperatureF,Dew PointF,Humidity,Sea Level PressureIn,VisibilityMPH,Wind Direction,Wind SpeedMPH,Gust SpeedMPH,PrecipitationIn,Events,Conditions,WindDirDegrees,DateUTC
12:53 AM,75.9,62.1,62,30.19,10.0,ENE,13.8,-,N/A,,Scattered Clouds,60,2013-04-27 04:53:00
1:53 AM,75.0,60.1,60,30.18,10.0,ENE,13.8,-,N/A,,Partly Cloudy,70,2013-04-27 05:53:00
2:53 AM,75.0,60.1,60,30.16,10.0,East,11.5,-,N/A,,Partly Cloudy,80,2013-04-27 06:53:00
3:53 AM,73.9,60.1,62,30.15,10.0,East,11.5,-,N/A,,Partly Cloudy,80,2013-04-27 07:53:00
4:53 AM,73.9,61.0,64,30.13,10.0,East,12.7,19.6,N/A,,Scattered Clouds,80,2013-04-27 08:53:00
5:53 AM,73.0,61.0,66,30.12,10.0,East,12.7,-,N/A,,Partly Cloudy,90,2013-04-27 09:53:00
6:53 AM,73.9,60.1,62,30.14,10.0,East,8.1,-,N/A,,Partly Cloudy,90,2013-04-27 10:53:00
7:53 AM,75.0,61.0,62,30.16,10.0,East,10.4,-,N/A,,Scattered Clouds,80,2013-04-27 11:53:00
8:53 AM,77.0,60.1,56,30.16,10.0,East,16.1,19.6,N/A,,Partly Cloudy,80,2013-04-27 12:53:00
9:53 AM,78.1,60.1,54,30.17,10.0,East,18.4,23.0,N/A,,Partly Cloudy,80,2013-04-27 13:53:00
10:53 AM,79.0,60.1,52,30.17,10.0,ENE,16.1,21.9,N/A,,Partly Cloudy,70,2013-04-27 14:53:00
11:53 AM,80.1,62.1,54,30.17,10.0,East,13.8,21.9,N/A,,Partly Cloudy,90,2013-04-27 15:53:00
12:53 PM,80.1,63.0,56,30.16,10.0,East,12.7,21.9,N/A,,Scattered Clouds,90,2013-04-27 16:53:00
1:53 PM,81.0,63.0,54,30.15,10.0,East,13.8,-,N/A,,Partly Cloudy,90,2013-04-27 17:53:00
2:53 PM,81.0,63.0,54,30.14,10.0,East,12.7,-,N/A,,Partly Cloudy,90,2013-04-27 18:53:00
3:53 PM,81.0,63.0,54,30.11,10.0,ENE,11.5,17.3,N/A,,Scattered Clouds,70,2013-04-27 19:53:00
4:53 PM,80.1,62.1,54,30.10,10.0,East,12.7,-,N/A,,Scattered Clouds,100,2013-04-27 20:53:00
5:53 PM,79.0,63.0,58,30.09,10.0,East,12.7,-,N/A,,Partly Cloudy,80,2013-04-27 21:53:00
6:53 PM,78.1,63.0,60,30.08,10.0,East,12.7,18.4,N/A,,Scattered Clouds,80,2013-04-27 22:53:00
7:53 PM,77.0,66.0,69,30.08,10.0,ENE,10.4,-,N/A,,Scattered Clouds,70,2013-04-27 23:53:00
8:53 PM,77.0,66.0,69,30.10,10.0,East,9.2,-,N/A,,Partly Cloudy,80,2013-04-28 00:53:00
9:40 PM,77.0,66.2,69,30.11,10.0,East,10.4,-,0.00,Rain,Light Rain,90,2013-04-28 01:40:00
9:53 PM,77.0,66.0,69,30.11,10.0,East,10.4,-,0.00,,Mostly Cloudy,80,2013-04-28 01:53:00
10:53 PM,77.0,66.9,71,30.12,10.0,ENE,17.3,-,N/A,,Mostly Cloudy,60,2013-04-28 02:53:00
11:53 PM,77.0,64.9,66,30.12,10.0,East,13.8,20.7,N/A,,Mostly Cloudy,90,2013-04-28 03:53:00